This is the latest recevied weather packets stored in our database for station/object K9MWD. If no packets are shown the sender has not sent any weather packets the latest 10 day(s).
| Time | Temp. | Humidity | Pressure | Rain* | Wind** | Luminosity | Snow |
|---|---|---|---|---|---|---|---|
| 1777477671 | 16.11° C | 83% | 1015.7 hPa | 0 mm | - | 63 W/m² | - |
| 1777477368 | 16.11° C | 83% | 1015.5 hPa | 0 mm | - | 38 W/m² | - |
| 1777477065 | 16.11° C | 82% | 1015.5 hPa | 0 mm | - | 40 W/m² | - |
| 1777476763 | 16.11° C | 82% | 1015.4 hPa | 0 mm | - | 43 W/m² | - |
| 1777476458 | 16.11° C | 81% | 1015.2 hPa | 0 mm | - | 78 W/m² | - |
| 1777476155 | 16.11° C | 82% | 1015.2 hPa | 0 mm | - | 119 W/m² | - |
| 1777475851 | 16.11° C | 82% | 1015.3 hPa | 0 mm | - | 162 W/m² | - |
| 1777475547 | 16.11° C | 82% | 1015.4 hPa | 0 mm | - | 102 W/m² | - |
| 1777475244 | 16.11° C | 81% | 1015.4 hPa | 0 mm | - | 78 W/m² | - |
| 1777474939 | 16.67° C | 80% | 1015.3 hPa | 0 mm | - | 74 W/m² | - |
| 1777474635 | 16.67° C | 80% | 1015.3 hPa | 0 mm | - | 75 W/m² | - |
| 1777474333 | 16.67° C | 80% | 1015.2 hPa | 0 mm | - | 67 W/m² | - |
| 1777474029 | 16.67° C | 80% | 1015.1 hPa | 0 mm | - | 69 W/m² | - |
| 1777473728 | 16.67° C | 79% | 1015.3 hPa | 0 mm | - | 50 W/m² | - |
| 1777473423 | 16.67° C | 78% | 1015.4 hPa | 0 mm | - | 53 W/m² | - |
| 1777473119 | 16.67° C | 77% | 1015.1 hPa | 0 mm | - | 56 W/m² | - |
| 1777472815 | 16.67° C | 77% | 1014.8 hPa | 0 mm | - | 54 W/m² | - |
| 1777472512 | 16.67° C | 76% | 1014.8 hPa | 0 mm | - | 48 W/m² | - |
| 1777472209 | 16.67° C | 77% | 1014.8 hPa | 0 mm | - | 47 W/m² | - |
| 1777471904 | 17.22° C | 76% | 1014.8 hPa | 0 mm | - | 53 W/m² | - |
| 1777471601 | 17.22° C | 76% | 1014.7 hPa | 0 mm | - | 42 W/m² | - |
| 1777471298 | 17.22° C | 76% | 1014.7 hPa | 0 mm | - | 48 W/m² | - |
| 1777470994 | 17.22° C | 76% | 1014.6 hPa | 0 mm | - | 54 W/m² | - |
| 1777470692 | 17.22° C | 76% | 1014.6 hPa | 0 mm | - | 51 W/m² | - |
| 1777470387 | 17.22° C | 76% | 1014.4 hPa | 0 mm | - | 43 W/m² | - |
* Rain latest hour (hover to see other rain measurements)
** Current wind speed in m/s (hover to see current wind gust speed)